Probability
0 0 0 0 0 0 0 0 0 0 0 0 0 0 0 0 0 0 0 0 0 0 0 0 0 0 0 0 0 0 0 0 0 0 0 0 0 0 0 0 0 0 0 0
0 0 0 0 0 0 0 0 0 0 0 0 0 0 0 0 0 0 0 0 0 0 0 0 0 0 0 0 0 0 0 0 0 0 0 0 0 0 0 0 0 0 0 0
0 0 0 0 0 0 0 0 0 0 0 0 0 0 0 0 0 0 0 0 0 0 0 0 0 0 0 0 0 0 0 0 0 0 0 0 0 0 0 0 0 0 0 0
0 0 0 0 0 0 0 0 0 0 0 0 0 0 0 0 0 0 0 0 0 0 0 0 0 0 0 0 0 0 0 0 0 0 0 0 0 0 0 0 0 0 0 0
0 0 0 0 0 0 0 0 0 0 0 0 0 0 0 0 0 0 0 0 0 0 0 0 0 0 0 0 0 0 0 0 0 0 0 0 0 0 0 0 0 0 0 0
0 0 0 0 0 0 0 0 0 0 0 0 0 0 0 0 0 0 0 0 0 0 0 0 0 0 0 0 0 0 0 0 0 0 0 0 0 0 0 0 0 0 0 0
0 0 0 0 0 0 0 0 0 0 0 0 0 0 0 0 0 0 0 0 0 0 0 0 0 0 0 0 0 0 0 0 0 0 0 0 0 0 0 0 0 0 0 0
0 0 0 0 0 0 0 0 0 0 0 0 0 0 0 0 0 0 0 0 0 0 0 0 0 0 0 0 0 0 0 0 0 0 0 0 0 0 0 0 0 0 0 0
0 0 0 0 0 0 0 0 0 0 0 0 0 0 0 0 0 0 0 0 0 0 0 0 0 0 0 0 0 0 0 0 0 0 0 0 0 0 0 0 0 0 0 0
0 0 0 0 0 0 0 0 0 0 0 0 0 0 0 0 0 0 0 0 0 0 0 0 0 0 0 0 0 0 0 0 0 0 0 0 0 0 0 0 0 0 0 0
0 0 0 0 0 0 0 0 0 0 0 0 0 0 0 0 0 0 0 0 0 0 0 0 0 0 0 0 0 0 0 0 0 0 0 0 0 0 0 0 0 0 0 0
0 0 0 0 0 0 0 0 0 0 0 0 0 0 0 0 0 0 0 0 0 0 0 0 0 0 0 0 0 0 0 0 0 0 0 0 0 0 0 0 0 0 0 0
0 0 0 0 0 0 0 0 0 0 0 0 0 0 0 0 0 0 0 0 0 0 0 0 0 0 0 0 0 0 0 0 0 0 0 0 0 0 0 0 0 0 0 0
0 0 0 0 0 0 0 0 0 0 0 0 0 0 0 0 0 0 0 0 0 0 0 0 0 0 0 0 0 0 0 0 0 0 0 0 0 0 0 0 0 0 0 0
0 0 0 0 0 0 0 0 0 0 0 0 0 0 0 0 0 0 0 0 0 0 0 0 0 0 0 0 0 0 0 0 0 0 0 0 0 0 0 0 0 0 0 0
0 0 0 0 0 0 0 0 0 0 0 0 0 0 0 0 0 0 0 0 0 0 0 0 0 0 0 0 0 0 0 0 0 0 0 0 0 0 0 0 0 0 0 0
0 0 0 0 0 0 0 0 0 0 0 0 0 0 0 0 0 0 0 0 0 0 0 0 0 0 0 0 0 0 0 0 0 0 0 0 0 0 0 0 0 0 0 0
0 0 0 0 0 0 0 0 0 0 0 0 0 0 0 0 0 0 0 0 0 0 0 0 0 0 0 0 0 0 0 0 0 0 0 0 0 0 0 0 0 0 0 0
0 0 0 0 0 0 0 0 0 0 0 0 0 0 0 0 0 0 0 0 0 0 0 0 0 0 0 0 0 0 0 0 0 0 0 0 0 0 0 0 0 0 0 0
0 0 0 0 0 0 0 0 0 0 0 0 0 0 0 0 0 0 0 0 0 0 0 0 0 0 0 0 0 0 0 0 0 0 0 0 0 0 0 0 0 0 0 0
0 0 0 0 0 0 0 0 0 0 0 0 0 0 0 0 0 0 0 0 0 0 0 0 0 0 0 0 0 0 0 0 0 0 0 0 0 0 0 0 0 0 0 0
0 0 0 0 0 0 0 0 0 0 0 0 0 0 0 0 0 0 0 0 0 0 0 0 0 0 0 0 0 0 0 0 0 0 0 0 0 0 0 0 0 0 0 0
0 0 0 0 0 0 0 0 0 0 0 0 0 0 0 0 0 0 0 0 0 0 0 0 0 0 0 0 0 0 0 0 0 0 0 0 0 0 0 0 0 0 0 0
0 0 0 0 0 0 0 0 0 0 0 0 0 0 0 0 0 0 0 0 0 0 0 0 0 0 0 0 0 0 0 0 0 0 0 0 0 0 0 0 0 0 0 0
0 0 0 0 0 0 0 0 0 0 0 0 0 0 0 0 0 0 0 0 0 0 0 0 0 0 0 0 0 0 0 0 0 0 0 0 0 0 0 0 0 0 0 0
0 0 0 0 0 0 0 0 0 0 0 0 0 0 0 0 0 0 0 0 0 0 0 0 0 0 0 0 0 0 0 0 0 0 0 0 0 0 0 0 0 0 0 0
0 0 0 0 0 0 0 0 0 0 0 0 0 0 0 0 0 0 0 0 0 0 0 0 0 0 0 0 0 0 0 0 0 0 0 0 0 0 0 0 0 0 0 0
Wind_Speed
4 1 4 7 9 13 15 15 13 13 15 13 9 10 9 8 9 9 8 6 4 2 1 1 2 3 4 4 5 6 8 9 9 10 11 11 12 13 14 14 14 15 15 16
4 3 5 7 11 14 17 17 19 19 18 9 3 6 8 9 10 9 7 5 3 1 0 2 3 4 5 6 6 7 9 10 10 11 11 12 13 14 15 15 15 15 16 16
6 3 3 11 14 17 13 13 13 17 13 5 7 8 9 9 9 8 6 4 3 1 1 2 4 5 6 7 8 8 9 10 11 11 12 13 14 15 15 16 16 16 16 16
3 4 11 6 2 6 12 13 13 11 5 7 7 6 5 7 8 7 5 4 2 1 2 3 4 5 7 8 8 9 10 11 11 11 13 14 15 16 16 15 15 15 16 17
5 8 11 7 5 7 9 9 10 11 9 8 8 7 6 5 5 5 4 2 1 2 3 4 5 6 7 8 9 9 10 11 12 12 14 15 16 16 16 15 16 16 16 17
6 7 10 4 4 4 3 8 7 10 11 12 11 8 7 8 6 5 3 2 2 2 4 5 6 7 8 10 10 11 11 12 13 13 14 15 16 17 15 15 15 15 16 16
11 11 11 1 7 8 7 4 7 10 12 13 10 3 6 8 5 4 3 2 2 4 5 6 7 7 9 11 11 12 12 13 13 14 14 15 15 15 15 15 15 15 16 15
8 10 11 7 10 9 3 4 8 9 10 10 6 6 6 6 4 3 3 3 3 5 6 7 7 8 10 12 12 12 13 14 14 15 13 12 15 15 15 15 15 15 15 15
10 7 1 7 6 1 3 6 7 8 8 8 7 6 6 5 4 3 3 4 4 6 8 9 9 9 12 12 12 13 14 14 15 15 14 13 14 15 14 13 12 12 12 13
7 7 4 5 4 4 5 5 6 7 8 8 7 6 5 4 4 4 4 5 5 7 9 11 11 11 12 13 12 13 14 15 14 14 14 14 11 11 11 11 12 12 12 13
8 4 3 6 8 7 6 6 7 7 6 7 7 6 5 4 4 4 5 6 6 8 10 12 12 13 13 13 13 14 14 14 14 13 13 13 12 11 13 12 13 15 13 13
7 7 7 6 8 10 9 9 9 8 7 6 6 5 4 4 4 5 6 7 8 10 11 13 13 14 13 13 12 13 13 13 11 11 11 11 12 13 14 17 22 24 24 22
1 3 3 3 7 9 9 8 8 8 7 6 5 4 4 4 5 6 8 9 10 11 13 14 14 15 14 13 12 13 13 13 11 11 11 12 12 13 14 14 18 21 22 23
4 5 4 5 6 8 8 8 7 6 5 4 4 3 4 5 7 8 10 10 11 12 14 14 15 15 14 13 12 13 13 13 13 11 11 12 12 12 13 14 14 13 15 19
6 4 4 6 8 8 7 7 6 5 4 3 3 4 5 7 9 10 11 11 12 13 14 14 15 15 14 13 12 13 12 10 10 11 11 12 12 12 12 14 14 13 13 13
6 6 7 8 9 8 7 7 6 5 4 4 4 6 7 8 10 11 12 11 12 14 14 14 15 15 13 12 12 11 11 15 15 12 12 12 12 12 12 13 13 13 12 12
9 8 8 8 8 7 6 5 5 4 4 5 6 7 8 9 11 12 12 12 12 13 14 14 15 14 12 12 12 10 11 12 16 13 11 11 12 12 12 12 12 12 12 14
5 6 7 8 7 6 5 4 4 4 5 6 6 7 9 10 12 13 13 13 13 14 14 14 13 13 13 13 11 10 10 11 11 11 11 11 12 12 12 12 13 14 12 13
5 6 5 5 4 4 3 3 4 4 5 6 7 9 10 11 12 13 13 13 14 15 13 11 15 14 14 13 14 11 11 12 12 12 12 15 14 12 12 12 13 13 13 12
6 5 5 4 2 2 2 3 4 6 6 7 8 10 11 12 12 12 12 13 11 11 12 14 14 13 12 12 14 11 12 12 13 12 12 12 12 13 12 12 13 13 12 12
5 4 3 1 1 2 3 4 5 7 8 8 9 11 12 13 12 11 11 13 12 12 12 15 12 10 10 12 15 11 11 12 12 12 12 12 12 13 13 13 12 12 12 11
2 1 0 1 3 4 5 5 6 8 9 9 10 10 11 13 13 12 12 11 12 13 11 10 10 13 15 18 12 11 12 12 12 11 11 12 12 12 13 13 12 12 11 11
0 1 2 3 5 6 7 7 8 8 9 10 11 12 12 12 10 11 12 9 9 14 13 11 15 20 23 15 11 11 12 12 12 11 11 12 12 12 12 13 12 12 12 11
2 3 4 4 5 6 8 9 8 8 9 10 11 11 11 11 10 9 10 14 16 18 13 15 21 22 21 11 10 11 11 11 11 11 12 12 12 12 12 12 12 12 12 13
4 4 5 5 6 7 8 9 9 9 10 9 11 11 10 9 10 11 11 13 16 17 13 15 20 20 14 10 10 11 11 11 12 12 12 12 12 12 12 12 12 12 11 11
4 5 5 6 6 7 7 7 7 8 9 10 10 9 9 9 11 11 10 12 15 17 13 11 12 13 10 10 11 12 11 12 12 11 12 12 13 13 12 12 15 12 11 11
5 5 5 6 6 6 6 7 8 9 9 10 12 11 11 10 10 11 12 12 11 11 11 10 10 10 10 11 11 12 11 11 11 11 11 11 11 11 12 14 12 11 11 11
Wind_Direction
255 149 182 209 204 198 213 232 247 256 258 256 230 212 197 179 165 161 156 153 149 144 111 356 338 329 327 321 319 315 309 308 307 307 306 303 301 300 300 298 295 293 291 289
219 198 221 243 236 222 228 240 248 260 265 270 226 195 188 177 169 168 164 164 161 167 270 320 326 322 315 312 313 308 303 302 304 304 303 302 301 301 299 297 295 294 292 291
233 169 230 248 237 226 223 224 234 247 258 188 181 186 183 174 170 170 169 169 177 206 291 309 313 309 307 308 307 302 298 299 302 302 301 301 302 300 299 298 297 295 293 292
201 182 237 252 118 225 229 239 231 241 224 179 174 156 160 167 168 167 166 175 190 240 281 296 302 302 302 302 299 296 296 298 300 301 301 302 302 301 301 300 298 296 295 294
194 237 260 257 206 190 208 245 221 218 201 161 137 142 159 162 164 164 165 176 206 259 278 288 296 301 301 296 296 294 294 298 303 303 302 302 302 302 303 301 299 297 297 296
195 226 246 243 133 155 185 254 199 191 176 161 163 191 179 163 161 158 162 179 223 261 276 285 297 303 297 296 298 298 302 303 303 302 301 300 301 302 301 300 298 298 295 295
221 237 259 195 138 160 213 274 151 174 171 170 184 173 123 146 158 166 178 206 249 275 282 290 300 299 293 295 298 303 303 300 299 299 299 300 300 299 300 299 298 297 296 295
207 225 244 150 159 200 237 106 157 167 169 170 158 129 138 153 163 178 206 239 270 282 289 296 297 293 292 296 302 304 302 299 298 299 300 298 298 299 300 300 299 299 298 299
202 219 45 165 196 198 139 161 166 165 163 160 156 163 165 174 186 208 237 260 273 283 291 295 297 295 293 299 304 303 301 299 299 300 299 298 298 299 300 299 297 298 298 298
226 237 213 204 205 190 180 171 157 155 155 161 166 169 177 190 211 235 254 268 278 284 289 296 301 299 294 298 301 300 299 299 300 300 299 299 296 294 294 295 296 296 296 297
234 234 209 216 207 185 162 148 143 142 152 162 162 173 189 211 232 251 267 276 279 282 287 292 298 299 299 301 302 299 298 298 298 297 297 298 295 292 292 288 287 292 294 295
225 200 197 199 183 174 165 164 160 153 152 160 173 183 202 230 248 262 273 280 282 284 287 292 298 299 301 302 301 298 296 298 298 298 297 296 297 296 285 283 290 291 289 290
229 145 168 138 159 169 170 164 162 163 164 169 181 197 219 246 262 270 275 279 283 288 293 295 296 296 299 301 298 293 292 294 295 294 294 296 297 298 299 298 293 293 292 294
160 142 150 164 165 163 156 152 150 154 166 177 192 217 239 259 271 275 279 284 289 292 293 293 293 294 299 301 296 291 290 290 289 290 292 293 294 294 296 300 303 300 298 297
183 188 162 144 142 143 142 146 154 167 180 200 218 238 254 267 276 281 286 290 292 291 291 294 294 295 301 301 295 291 290 288 289 290 291 291 292 293 293 294 295 297 299 299
147 138 140 146 151 152 156 165 178 193 208 230 248 261 270 276 280 284 287 290 291 292 295 297 294 297 302 299 294 290 287 287 290 291 291 291 292 292 293 293 294 295 297 300
151 156 160 164 165 168 175 184 196 212 234 252 266 279 284 285 286 287 290 293 290 289 291 291 292 295 296 293 291 290 290 291 291 290 287 289 291 291 292 291 292 294 294 296
179 168 169 168 169 173 183 197 217 238 253 268 281 284 283 284 287 292 296 299 296 292 290 290 292 295 293 291 291 290 289 288 289 289 289 290 291 291 291 291 292 293 294 296
139 140 143 148 158 172 194 224 247 262 271 277 280 281 284 284 286 289 294 295 293 293 294 297 299 297 294 294 294 290 288 288 289 289 291 292 293 291 291 291 291 292 293 294
119 121 123 125 132 175 236 267 277 278 279 279 280 282 284 286 289 291 291 286 281 283 291 296 297 293 293 294 296 290 288 288 291 293 293 292 292 292 292 292 292 292 292 292
115 115 117 125 260 274 274 279 280 281 284 282 278 280 285 289 290 289 287 287 288 291 294 295 293 291 295 296 296 289 288 290 291 292 292 292 292 292 292 292 292 292 291 291
115 125 204 282 286 288 288 285 280 280 283 283 281 281 283 286 288 285 276 275 286 294 296 292 291 293 298 300 294 292 291 291 292 291 290 290 291 291 292 293 292 292 290 290
249 273 282 285 287 290 291 285 279 278 279 281 283 284 284 285 287 287 288 288 291 295 296 289 292 297 301 300 294 293 292 292 291 291 290 290 290 290 290 291 291 291 290 290
286 285 285 288 287 282 283 286 284 280 278 279 276 275 278 284 283 276 279 289 293 295 293 291 295 298 302 297 293 292 291 291 291 291 290 289 289 289 290 290 290 289 289 290
279 277 275 276 277 278 282 288 289 285 282 280 281 281 277 273 279 287 290 291 294 296 294 295 297 299 298 292 291 290 290 289 290 291 290 292 292 291 290 289 289 290 290 289
274 276 274 272 272 277 282 284 285 287 290 290 290 290 289 286 284 286 288 290 292 293 294 294 295 297 293 291 291 291 291 293 294 292 290 291 290 290 289 289 290 288 287 287
276 275 276 277 275 272 276 279 281 285 287 288 291 293 293 292 290 290 292 292 293 292 292 293 294 293 292 292 292 291 291 291 291 291 291 290 290 289 289 289 289 288 287 286